C/2017 AB5 ( PanSTARRS )

Japanese version
Home page
Updated on September 23, 2018

---------------------------------------------------------------------

* Profile

Discovery Date January 3, 2017
Magnitude 21.3 mag
Discoverer Pan-STARRS 1 telescope (Haleakala)

* Pictures

* Orbital Elements

Epoch 2018 Feb. 11.0 TT = JDT 2458160.5
T 2018 Feb. 18.12386 TT                                 MPCW
q   9.2162247            (2000.0)            P               Q
z  +0.0000097      Peri.   78.40857     -0.41291755     -0.83503584
 +/-0.0000030      Node    42.68962     +0.47362278     -0.53788141
e   0.9999105      Incl.   32.43083     +0.77793352     -0.11575290
From 72 observations 2017 Jan. 3-2018 Apr. 18, mean residual 0".4.

* Magnitudes Graph

        m1 = 5.0 + 5 log d + 10.0 log r

---------------------------------------------------------------------

The orbital elements are published on M.P.E.C. 2018-S50.
The magnitudes graphs are made with Comet for Windows.

---------------------------------------------------------------------

Copyright(C) Seiichi Yoshida (comet@aerith.net). All rights reserved.